TimePST,TemperatureF,Dew PointF,Humidity,Sea Level PressureIn,VisibilityMPH,Wind Direction,Wind SpeedMPH,Gust SpeedMPH,PrecipitationIn,Events,Conditions,WindDirDegrees,DateUTC
12:56 AM,52.0,36.0,54,30.07,10.0,West,4.6,-,N/A,,Clear,270,2013-02-07 08:56:00
1:56 AM,50.0,36.0,59,30.07,10.0,Calm,Calm,-,N/A,,Clear,0,2013-02-07 09:56:00
2:56 AM,48.9,35.1,59,30.06,10.0,Calm,Calm,-,N/A,,Clear,0,2013-02-07 10:56:00
3:56 AM,45.0,32.0,60,30.06,10.0,Calm,Calm,-,N/A,,Clear,0,2013-02-07 11:56:00
4:56 AM,48.0,35.1,61,30.07,10.0,SW,5.8,-,N/A,,Clear,220,2013-02-07 12:56:00
5:56 AM,45.0,33.1,63,30.07,10.0,SSW,4.6,-,N/A,,Clear,200,2013-02-07 13:56:00
6:56 AM,44.1,33.1,65,30.09,10.0,Calm,Calm,-,N/A,,Clear,0,2013-02-07 14:56:00
7:56 AM,51.1,39.9,66,30.11,10.0,SE,3.5,-,N/A,,Clear,140,2013-02-07 15:56:00
8:56 AM,57.0,43.0,59,30.12,10.0,Calm,Calm,-,N/A,,Clear,0,2013-02-07 16:56:00
9:56 AM,62.1,39.9,44,30.11,10.0,Calm,Calm,-,N/A,,Clear,0,2013-02-07 17:56:00
10:56 AM,68.0,39.9,36,30.10,10.0,South,3.5,-,N/A,,Clear,190,2013-02-07 18:56:00
11:56 AM,71.1,39.9,32,30.07,10.0,Variable,3.5,-,N/A,,Clear,0,2013-02-07 19:56:00
12:56 PM,73.0,35.1,25,30.03,10.0,ESE,6.9,-,N/A,,Clear,120,2013-02-07 20:56:00
1:56 PM,75.0,39.0,27,29.99,10.0,ESE,6.9,-,N/A,,Clear,120,2013-02-07 21:56:00
2:56 PM,75.0,37.9,26,29.97,10.0,ESE,9.2,-,N/A,,Clear,110,2013-02-07 22:56:00
3:56 PM,75.0,37.9,26,29.96,10.0,SE,10.4,-,N/A,,Clear,140,2013-02-07 23:56:00
4:56 PM,71.1,43.0,36,29.95,10.0,SSE,8.1,-,N/A,,Clear,150,2013-02-08 00:56:00
5:56 PM,64.9,42.1,43,29.94,10.0,SE,10.4,-,N/A,,Clear,140,2013-02-08 01:56:00
6:56 PM,61.0,39.9,46,29.95,10.0,West,8.1,-,N/A,,Partly Cloudy,260,2013-02-08 02:56:00
7:56 PM,64.9,42.1,43,29.95,10.0,WSW,10.4,-,N/A,,Clear,250,2013-02-08 03:56:00
8:56 PM,63.0,41.0,45,29.94,10.0,WSW,13.8,-,N/A,,Scattered Clouds,250,2013-02-08 04:56:00
9:56 PM,61.0,42.1,50,29.93,10.0,WSW,17.3,-,N/A,,Scattered Clouds,240,2013-02-08 05:56:00
10:56 PM,60.1,37.9,44,29.92,10.0,WSW,19.6,28.8,N/A,,Scattered Clouds,250,2013-02-08 06:56:00
11:03 PM,60.8,39.2,45,29.87,10.0,WSW,24.2,29.9,N/A,,Partly Cloudy,250,2013-02-08 07:03:00
11:56 PM,57.9,37.9,47,29.93,10.0,WSW,21.9,28.8,N/A,,Partly Cloudy,250,2013-02-08 07:56:00